Location: Владивосток
(43.1151°N, 131.8856°E)
Time: 02:06:57
(UTC+10:00)

FO-29 - Pass Details

Date: 27 April 2024
Orbit: 801 x 1320 km, 98.6° (Epoch: 19 May)

Event Time Altitude Azimuth Distance (km) Brightness Sun altitude
Rises 02:18:05 0° 19° (NNE) 4,239 14.0 -31.0°
Reaches altitude 10° 02:20:56 10° 26° (NNE) 3,306 13.1 -30.8°
Maximum altitude 02:28:18 44° 96° (E) 1,760 10.8 -30.3°
Enters shadow 02:30:35 36° 134° (SE) 1,967 10.8 -30.2°
